Weather History for KFRI - June, 2013

Change the Weather History Date:

Sunday, June 30, 2013

  Actual Average (KMHK) Record (KMHK)
Temperature  
Mean Temperature 69 °F 78 °F  
Max Temperature 79 °F 89 °F - ()
Min Temperature 59 °F 66 °F - ()
Degree Days  
Heating Degree Days 0 0  
Month to date heating degree days 8  
Since 1 June heating degree days 11  
Since 1 July heating degree days 5315  
Cooling Degree Days 4 13  
Month to date cooling degree days 270  
Year to date cooling degree days 370  
Since 1 June cooling degree days 270  
Growing Degree Days 19 (Base 50)    
Moisture  
Dew Point 57 °F    
Average Humidity 65    
Maximum Humidity 99    
Minimum Humidity 40    
Precipitation  
Precipitation 0.00 in 0.13 in - ()
Month to date precipitation 5.09  
Year to date precipitation 16.29  
Sea Level Pressure  
Sea Level Pressure 30.02 in    
Wind  
Wind Speed 5 mph (NNE)    
Max Wind Speed 16 mph    
Max Gust Speed 21 mph    
Visibility 10 miles    
Events      
T = Trace of Precipitation, MM = Missing Value Source: NWS Daily Summary

Daily Weather History Graph

Daily Weather History Graph

Search for Another Location

Airport or City:

Trip Planner

Search our weather history database for the weather conditions in past years. The results will help you decide how hot, cold, wet, or windy it might be!

Date:

Astronomy

Jun. 30, 2013 Rise Set
Actual Time 6:04 AM CDT 8:56 PM CDT
Civil Twilight 5:32 AM CDT 9:28 PM CDT
Nautical Twilight 4:52 AM CDT 10:09 PM CDT
Astronomical Twilight 4:05 AM CDT 10:55 PM CDT
Moon 1:01 AM CDT (6/30) 2:14 PM CDT (6/30)
Length of Visible Light 15h 56m
Length of Day
14h 52m
Last Quarter, 45% of the Moon is Illuminated
Jun 30
Last Quarter
Jul 8
New
Jul 15
First Quarter
Jul 22
Full
Jul 29
Last Quarter

Hourly Weather History & Observations

Time (CDT) Temp. Dew Point Humidity Pressure Visibility Wind Dir Wind Speed Gust Speed Precip Events Conditions
12:58 AM 64.2 °F 58.1 °F 80% 29.95 in 10.0 mi Calm Calm - N/A   Clear
1:58 AM 64.6 °F 58.5 °F 80% 29.94 in 10.0 mi Calm Calm - N/A   Clear
2:58 AM 59.9 °F 59.5 °F 99% 29.96 in 10.0 mi South 2.3 mph - N/A   Clear
3:58 AM 60.8 °F 58.5 °F 92% 29.96 in 10.0 mi North 2.3 mph - N/A   Clear
4:58 AM 61.7 °F 58.3 °F 89% 29.96 in 10.0 mi NNE 3.5 mph - N/A   Clear
5:58 AM 60.1 °F 58.3 °F 94% 29.99 in 10.0 mi NE 3.5 mph - N/A   Partly Cloudy
6:58 AM 59.7 °F 59.5 °F 99% 29.99 in 10.0 mi NNE 4.6 mph - N/A   Clear
7:58 AM 64.0 °F 60.3 °F 87% 30.01 in 10.0 mi North 4.6 mph - N/A   Clear
8:58 AM 68.5 °F 59.9 °F 74% 30.04 in 10.0 mi North 5.8 mph - N/A   Clear
9:58 AM 73.0 °F 57.6 °F 58% 30.04 in 10.0 mi NNE 9.2 mph - N/A   Clear
10:58 AM 74.7 °F 56.5 °F 53% 30.04 in 10.0 mi NNE 10.4 mph - N/A   Clear
11:58 AM 77.0 °F 56.7 °F 49% 30.03 in 10.0 mi NNE 12.7 mph - N/A   Scattered Clouds
12:58 PM 76.6 °F 55.4 °F 48% 30.03 in 10.0 mi North 9.2 mph - N/A   Scattered Clouds
1:58 PM 77.9 °F 54.7 °F 45% 30.02 in 10.0 mi NNE 11.5 mph - N/A   Partly Cloudy
2:44 PM 77.0 °F 53.6 °F 44% 30.04 in 10.0 mi North 12.7 mph 18.4 mph N/A   Scattered Clouds
2:58 PM 78.4 °F 54.7 °F 44% 30.02 in 10.0 mi NNE 16.1 mph - N/A   Partly Cloudy
3:23 PM 78.8 °F 55.4 °F 44% 30.04 in 10.0 mi NNE 16.1 mph 20.7 mph N/A   Partly Cloudy
3:58 PM 79.3 °F 54.9 °F 43% 30.02 in 10.0 mi NNE 12.7 mph - N/A   Partly Cloudy
4:58 PM 79.0 °F 55.6 °F 44% 30.02 in 10.0 mi NE 15.0 mph - N/A   Clear
5:58 PM 77.5 °F 51.1 °F 40% 30.02 in 10.0 mi NNE 12.7 mph - N/A   Clear
6:58 PM 76.5 °F 50.9 °F 41% 30.02 in 10.0 mi North 8.1 mph - N/A   Clear
7:58 PM 74.1 °F 54.7 °F 51% 30.02 in 10.0 mi NNE 5.8 mph - N/A   Clear
8:58 PM 69.4 °F 56.7 °F 64% 30.03 in 10.0 mi NNE 2.3 mph - N/A   Clear
9:58 PM 66.7 °F 57.6 °F 72% 30.06 in 10.0 mi ENE 3.5 mph - N/A   Clear
10:58 PM 65.3 °F 56.5 °F 73% 30.07 in 10.0 mi ENE 3.5 mph - N/A   Clear
11:58 PM 62.4 °F 55.9 °F 79% 30.07 in 10.0 mi NE 4.6 mph - N/A   Clear